COSMOS 2251 DEB, 35446

Orbit data source: Space-Track

COSMOS 2251 DEB, 35446 is space debris in LEO originally from a launch on Wed, 16 Jun 1993 UTC launched from the Plesetsk Missile And Space Complex (PKMTR). The debris from Iridium 33, an American commercial communications satellite, has been tracked extensively since its accidental collision with the defunct Russian satellite Cosmos 2251 in 2009. This event, occurring at high speed in low Earth orbit (LEO), generated thousands of pieces of space debris, significantly increasing the risk of further collisions. The Iridium 33 debris cloud has impacted space traffic management and orbital debris mitigation strategies, making it a subject of ongoing study in space situational awareness.

Loading next visibility...
Identifier
35446, 1993-036AKQ
Orbit
LEO
Country
Flag of CISCIS
Related business
Manufacturer
Unknown
Mission
Spacecraft
Bus & Motor
Unknown
Mass
Unknown
Launch date (UTC)
1993-06-16 (33 years ago)
Launch vehicle
Unknown
Launch site
Plesetsk Missile And Space Complex (PKMTR)
Object type
Payload
Rocket body
Debris
Shape & HBR
Unknown shape, 0.1 m
Radar Cross Section
Small (<0.1 m²)

Expand to show TLE details & history
Last TLE update: 1 day ago

TLE from 1 day ago
0 COSMOS 2251 DEB
1 35446U 93036AKQ 26036.49020664  .00000518  00000-0  12346-3 0  9994
2 35446  74.0446 214.6547 0076472 318.5729  40.9650 14.54699655888045
Epoch: 2026-02-05T11:45Z
TLE epoch observation values (Epoch: 2026-02-05T11:45:53.853Z)
Latitude
-0.00002°
Longitude
-97.46138°
Altitude
672.215 km
Speed
7.543 km/s
True Right ascension
14h 18m 37s
True Declination
0° 00' 00"
Sunlit
Object was in daylight at epoch
Visualization orbit readout
Latitude
Unknown
Longitude
Unknown
Altitude
Unknown
Speed
Unknown
Apparent Right ascension
Unknown
Apparent Declination
Unknown
Sunlit
N/A
Visualization observer readout
Local Sidereal Time
18:01:50
Azimuth
Unknown
Elevation
Unknown
Doppler factor
Unknown
Orbital elements
Apogee altitude
762.131 km
Perigee altitude
653.754 km
Semi-major axis
7,086.08 km
Eccentricity
0.00765
Inclination
74.0446°
RAAN
214.6547°
Arg. of periapsis
318.5729°
True anomaly
41.54367°
Mean anomaly
40.965°
Eccentric anomaly
41.25392°
Mean motion
3.6386 °/min
Orbital period
98.94 mins
BSTAR
0.00012346
Loading maneuver chart data...
Computing Atmospheric mass density...

Documentation

Showing up to 5 results
|